Vertical_Velocity
5 -2 5 -3 2 2 1 -0 -2 0 0 1 -0 1 -3 -1 -1 -1 -0 -0 0 0
3 -1 1 3 2 0 2 4 -2 1 -1 -1 -2 -1 -1 -0 -1 -2 -2 -1 -2 -0
3 5 -1 2 5 2 -2 0 -5 -1 -1 -0 0 -1 -1 -0 -0 -0 -2 -1 -1 -1
5 1 -7 5 -2 -1 -3 -6 4 2 -2 -1 3 1 -1 -2 -2 -1 -2 -1 2 1
2 -1 -6 6 2 -3 -0 -5 1 2 -2 -0 3 -3 -2 0 1 -0 -0 1 0 -0
-2 1 4 -0 1 -4 6 -7 5 -2 -5 4 0 1 1 2 0 -1 0 1 2 -0
4 5 1 -3 6 -0 -4 4 -3 -6 3 1 -1 -1 -2 0 -1 -0 1 1 1 2
0 -2 -6 1 -5 -11 -3 -7 -4 6 3 -4 -2 -3 -1 0 -0 -0 -1 -3 -1 -2
-4 -1 -2 -6 -7 -6 -1 2 6 3 -0 1 0 1 0 -0 1 -2 1 2 -2 -2
-6 -5 -2 -1 0 3 5 4 2 -0 1 1 -1 0 0 -0 0 -0 -2 -4 -2 2
-3 -5 -5 -2 1 2 2 1 1 1 1 2 -0 -0 -0 -0 0 3 1 -2 0 -1
-5 -2 -0 1 2 1 0 -1 -3 -3 -3 -0 -3 -3 -4 -4 -3 -3 0 3 3 0
0 3 3 1 1 0 0 -0 1 4 1 -2 4 1 1 0 -5 -2 1 5 4 1
-2 -2 -2 -3 -1 0 -1 1 1 -0 -2 2 -2 4 -0 -3 -7 -6 -2 -1 3 8
Height
3127 3128 3127 3127 3126 3126 3125 3124 3123 3122 3121 3120 3118 3116 3115 3113 3110 3107 3105 3102 3101 3098
3120 3120 3119 3120 3120 3120 3119 3118 3116 3115 3114 3113 3112 3110 3107 3104 3102 3100 3098 3095 3093 3091
3113 3113 3113 3114 3113 3112 3112 3111 3110 3110 3108 3107 3105 3102 3100 3098 3095 3093 3090 3088 3086 3083
3107 3107 3108 3106 3105 3106 3106 3107 3105 3103 3102 3100 3097 3094 3092 3090 3087 3085 3082 3079 3077 3075
3101 3102 3102 3101 3100 3101 3099 3100 3098 3095 3093 3092 3088 3085 3084 3081 3078 3076 3073 3071 3068 3066
3097 3096 3095 3095 3093 3093 3092 3093 3090 3087 3086 3083 3080 3077 3075 3073 3070 3067 3065 3062 3059 3057
3089 3088 3088 3088 3087 3086 3085 3084 3080 3079 3076 3073 3071 3068 3066 3063 3060 3057 3055 3053 3051 3049
3081 3081 3082 3082 3080 3079 3077 3075 3073 3070 3066 3064 3061 3058 3055 3053 3051 3049 3047 3045 3043 3041
3077 3077 3076 3074 3071 3070 3068 3066 3063 3060 3057 3054 3050 3048 3045 3043 3042 3040 3039 3038 3035 3033
3069 3067 3065 3063 3062 3060 3059 3056 3053 3050 3047 3045 3042 3039 3037 3035 3034 3032 3031 3029 3027 3025
3060 3059 3057 3056 3054 3052 3049 3046 3044 3041 3039 3037 3034 3031 3029 3028 3027 3025 3022 3020 3017 3014
3053 3051 3049 3046 3044 3042 3039 3037 3035 3032 3030 3028 3026 3024 3022 3020 3018 3016 3014 3010 3007 3002
3044 3042 3039 3037 3035 3032 3030 3028 3026 3024 3021 3020 3019 3017 3014 3011 3008 3007 3004 3000 2995 2990
3035 3032 3029 3027 3025 3023 3021 3019 3017 3016 3014 3013 3010 3007 3004 3001 2998 2995 2991 2987 2983 2978